Tracking 32579 objects as of 17-Dec-2025
HD Live streaming from Space Station
objects crossing your sky now

COSMOS 1771

Track COSMOS 1771 now!
10-day predictions
COSMOS 1771 is classified as:


NORAD ID: 16917
Int'l Code: 1986-062A
Perigee: 922.2 km
Apogee: 1,001.2 km
Inclination: 65.0 °
Period: 104.1 minutes
Semi major axis: 7332 km
RCS: 2.6102 m2 (large)
Launch date: August 20, 1986
Source: Commonwealth of Independent States (former USSR) (CIS)
Launch site: TYURATAM MISSILE AND SPACE COMPLEX (TTMTR)
Your satellite tracking list
Your tracking list is empty




NASA's NSSDC Master Catalog

Two Line Element Set (TLE):
1 16917U 86062A   25350.29575754 -.00000078  00000-0  95153-5 0  9999
2 16917  64.9833 105.1676 0053881 341.4188  18.4903 13.82638341986488
Source of the keplerian elements: AFSPC